Visalia, CA

7:49 AM PST on December 08, 2019 (GMT -0800)
Visalia Municipal

Weather History for KVIS - August, 2019

Change the Weather History Date:

Saturday, August 3, 2019

  Actual Average Record
Temperature  
Mean Temperature 80 °F -  
Max Temperature 97 °F 96 °F 110 °F (1946)
Min Temperature 64 °F 65 °F 35 °F (2010)
Cooling Degree Days 15    
Growing Degree Days 30 (Base 50)    
Moisture  
Dew Point 61 °F    
Average Humidity 56    
Maximum Humidity 90    
Minimum Humidity 25    
Precipitation  
Precipitation 0.00 in - - ()
Sea Level Pressure  
Sea Level Pressure 29.91 in    
Wind  
Wind Speed 4 mph (West)    
Max Wind Speed 8 mph    
Max Gust Speed -    
Visibility 10 miles    
Events      
Averages and records for this station are not official NWS values.
T = Trace of Precipitation, MM = Missing Value Source: NWS Daily Summary

Daily Weather History Graph

Daily Weather History Graph

Search for Another Location

Airport or City:

Astronomy

Aug. 03, 2019 Rise Set
Actual Time 6:05 AM PDT 8:01 PM PDT
Civil Twilight 5:37 AM PDT 8:29 PM PDT
Nautical Twilight 5:03 AM PDT 9:03 PM PDT
Astronomical Twilight 4:26 AM PDT 9:40 PM PDT
Moon 9:00 AM PDT (8/3) 10:14 PM PDT (8/3)
Length of Visible Light 14h 51m
Length of Day
13h 55m
Waxing Crescent, 10% of the Moon is Illuminated
Aug 3
Waxing Crescent
Aug 7
First Quarter
Aug 15
Full
Aug 23
Last Quarter
Aug 30
New

Hourly Weather History & Observations

Time (PDT) Temp. Heat Index Dew Point Humidity Pressure Visibility Wind Dir Wind Speed Gust Speed Precip Events Conditions
12:56 AM 72.0 °F - 62.1 °F 71% 29.94 in 10.0 mi WNW 3.5 mph - N/A   Clear
1:56 AM 73.0 °F - 62.1 °F 68% 29.93 in 10.0 mi NNW 3.5 mph - N/A   Clear
2:56 AM 68.0 °F - 63.0 °F 84% 29.93 in 10.0 mi West 3.5 mph - N/A   Clear
3:56 AM 66.9 °F - 62.1 °F 84% 29.93 in 10.0 mi Calm Calm - N/A   Clear
4:56 AM 64.0 °F - 61.0 °F 90% 29.93 in 10.0 mi SSW 3.5 mph - N/A   Clear
5:56 AM 64.0 °F - 61.0 °F 90% 29.94 in 10.0 mi Calm Calm - N/A   Clear
6:56 AM 64.9 °F - 62.1 °F 90% 29.95 in 10.0 mi SE 3.5 mph - N/A   Clear
7:56 AM 70.0 °F - 61.0 °F 73% 29.96 in 10.0 mi South 3.5 mph - N/A   Clear
8:56 AM 73.9 °F - 61.0 °F 64% 29.97 in 10.0 mi South 4.6 mph - N/A   Clear
9:56 AM 78.1 °F - 63.0 °F 60% 29.96 in 10.0 mi SSW 4.6 mph - N/A   Clear
10:56 AM 82.0 °F 83.1 °F 63.0 °F 52% 29.95 in 10.0 mi WSW 3.5 mph - N/A   Clear
11:56 AM 84.9 °F 86.6 °F 64.9 °F 51% 29.94 in 10.0 mi WSW 5.8 mph - N/A   Clear
12:56 PM 91.0 °F 91.9 °F 63.0 °F 39% 29.92 in 10.0 mi West 8.1 mph - N/A   Clear
1:56 PM 93.0 °F 93.8 °F 62.1 °F 36% 29.90 in 10.0 mi WNW 5.8 mph - N/A   Clear
2:56 PM 95.0 °F 94.8 °F 60.1 °F 31% 29.89 in 10.0 mi West 8.1 mph - N/A   Clear
3:56 PM 96.1 °F 94.1 °F 55.0 °F 25% 29.87 in 10.0 mi WNW 6.9 mph - N/A   Clear
4:56 PM 95.0 °F 94.4 °F 59.0 °F 30% 29.85 in 10.0 mi WSW 6.9 mph - N/A   Clear
5:56 PM 96.1 °F 94.8 °F 57.0 °F 27% 29.84 in 10.0 mi West 4.6 mph - N/A   Clear
6:56 PM 95.0 °F 93.7 °F 57.0 °F 28% 29.84 in 10.0 mi NNE 4.6 mph - N/A   Clear
7:56 PM 91.9 °F 90.8 °F 57.9 °F 32% 29.85 in 10.0 mi NNE 3.5 mph - N/A   Clear
8:56 PM 84.0 °F 85.4 °F 64.0 °F 51% 29.86 in 10.0 mi WSW 3.5 mph - N/A   Clear
9:56 PM 84.0 °F 84.5 °F 62.1 °F 47% 29.88 in 10.0 mi West 3.5 mph - N/A   Clear
10:56 PM 81.0 °F 81.7 °F 61.0 °F 50% 29.88 in 10.0 mi Calm Calm - N/A   Clear
11:56 PM 75.0 °F - 64.0 °F 69% 29.90 in 10.0 mi Calm Calm - N/A   Clear